User: anonymous   Login
Location: Home
(40.5300°N, 105.0300°W)
Time: 04:38:13
(UTC-06:00)
Language:

STARLINK-2732 - Orbit

View from above orbital plane
View from above orbital plane
View from above satellite
View from above satellite

Ground track
Ground track

The orbit data is extracted from the following two-line orbital elements,

1 48646C 21044J   21266.14081539 -.00004969  00000-0 -33301-3 0  2667
2 48646  53.0531 232.4456 0001398  51.5597 255.8541 15.06392623    14
Epoch (UTC): 23 September 2021 03:22:46
Eccentricity: 0.0001398
inclination: 53.0531°
perigee height: 546 km
apogee height: 548 km
right ascension of ascending node: 232.4456°
argument of perigee: 51.5597°
revolutions per day: 15.06392623
mean anomaly at epoch: 255.8541°
orbit number at epoch: 1

The dashed part of the orbit path shows where the satellite is in the earth's shadow,  

DLR